Regional Weather Roundup
Issued by NWS Glasgow, MT

Home | Current Version | Previous Version | Text Only | Print | Product List | Glossary On
Versions: 1 2 3 4 5 6 7 8 9 10 11 12 13 14 15 16 17 18 19 20 21 22 23 24 25 26 27
000
ASUS45 KGGW 060515
RWRGGW
HOURLY REGIONAL WEATHER ROUNDUP FOR NORTHEAST MONTANA
NATIONAL WEATHER SERVICE GLASGOW MONTANA
1000 PM MST MON DEC 05 2016

NOTE: "FAIR" INDICATES FEW OR NO CLOUDS BELOW 12,000 FEET WITH NO
SIGNIFICANT WEATHER AND/OR OBSTRUCTIONS TO VISISBILITY.

NORTHEAST MONTANA


CITY           SKY/WX    TMP DP  RH WIND       PRES   REMARKS
GLASGOW        CLOUDY     7   0  73 W28       30.05R WCI -16
PLENTYWOOD       N/A      8   6  92 NW23G31     N/A  WCI -13
WOLF POINT     CLOUDY    10   1  67 NW22G29   30.06R WCI -10
JORDAN           N/A      4  -2  76 NW15      30.06R WCI -14
SIDNEY         LGT SNOW   8   3  80 NW31G40   29.93S WCI -15
GLENDIVE       CLOUDY     7   0  73 NW25G36   29.98R WCI -15
SCOBEY           N/A      5 -10  50 NW22G29   29.96R WCI -16

FORT PECK REPORTS


CITY           SKY/WX    TMP DP  RH WIND       PRES   REMARKS
FORT PECK        N/A      8   2  76 W26G35      N/A  WCI -14
THE PINES        N/A      8   0  69 W5G15       N/A

SOUTHEAST MONTANA


CITY           SKY/WX    TMP DP  RH WIND       PRES   REMARKS
BILLINGS       CLOUDY    16   5  62 W7        30.01R
MILES CITY     CLOUDY     8  -1  66 NW16      30.05R WCI -10
BAKER          CLOUDY     6  -1  73 NW25G35   29.93S WCI -16
LIVINGSTON     LGT SNOW  16  13  88 W5        29.94S FOG

CENTRAL MONTANA


CITY           SKY/WX    TMP DP  RH WIND       PRES   REMARKS
HAVRE          PTCLDY     6  -1  73 W9        30.16R
LEWISTOWN      FLURRIES   6   3  87 W9        30.01S
GREAT FALLS    MOCLDY     2  -2  83 W6        30.09S
CUT BANK       CLOUDY     4  -1  80 NW10      30.08S HAZE    WCI -11
HELENA         CLOUDY    10   3  73 W8        30.05R
BUTTE          PTCLDY     8   2  76 CALM      29.90S
BOZEMAN        LGT SNOW  17  14  88 N3        29.97R FOG

WESTERN MONTANA


CITY           SKY/WX    TMP DP  RH WIND       PRES   REMARKS
MISSOULA       CLOUDY    21  16  81 CALM      30.02S
KALISPELL      NOT AVBL

NORTH DAKOTA


CITY           SKY/WX    TMP DP  RH WIND       PRES   REMARKS
WILLISTON      LGT SNOW  11   6  81 NW28G39   29.90R VSB 1   WCI -10
DICKINSON      LGT SNOW   5   1  83 W36G45    29.79S VSB 3/4 WCI -21
MINOT          SNOW      21  18  88 NW30      29.65R VSB 1/2
BISMARCK       LGT SNOW  14  11  87 W29G43    29.69S FOG     WCI  -7

SOUTHERN SASKATCHEWAN


CITY           SKY/WX    TMP DP  RH WIND       PRES   REMARKS
REGINA         FLURRIES   9   3  78 NW20G25   29.98R WCI -11
ESTEVAN        SNOW      12   9  85 NW33      29.83R VSB 1/4 WCI -10
SWIFT CURRENT  CLEAR     -2  -6  84 NW18G24   30.01S WCI -24





USA.gov is the U.S. government's official web portal to all federal, state and local government web resources and services.